[[{"header":{"parameterUnit":"m.s-1","parameterCategory":1,"la1":30.2991,"la2":30.254,"lo1":-89.0895,"lo2":-89.0444,"dy":0.0017,"dx":0.0017,"nx":28,"ny":28,"refTime":"2025-03-10T21:00:00:Z","depth":0,"parameterNumber":2,"parameterNumberName":"U-component_of_WINDS"},"data":[0,0,0,0,0,0,0,0,0,0,0,0,0,0,0,0,0,0,0,0,0,0,0,0,0,0,0,0,0,0,0,0,0,0,0,0,0,0,0,0,0,0,0,0,0,0,0,0,0,0,0,0,0,0,0,0,0,0,1.1673,1.1673,0,1.1674,1.1674,1.1674,1.1648,1.1647,1.1647,1.1646,1.1647,1.1647,1.1648,0,0,0,0,0,0,0,0,0,0,0,0,0,1.1649,1.165,1.1673,1.1673,1.1673,1.1674,1.1674,1.1674,1.1648,1.1647,1.1646,1.1646,1.1647,1.1647,1.1648,0,0,0,0,0,0,0,0,0,0,0,0,0,1.1656,1.165,1.1673,1.166,1.1659,1.1674,1.1674,1.1674,1.1648,1.1647,1.1646,1.1645,1.1646,1.1647,1.1648,1.1675,0,0,1.1651,1.1652,0,0,0,0,0,0,0,0,1.1656,1.1657,1.1662,1.1661,1.166,1.166,1.1666,1.1675,1.1649,1.1653,1.1646,1.1645,1.1652,1.1652,1.1655,1.1675,1.1675,1.1651,1.1652,1.1652,1.1653,0,0,0,0,0,0,0,1.1655,1.1657,1.1674,1.1662,1.1661,1.1655,1.1654,1.1667,1.1658,1.1652,1.165,1.1651,1.1651,1.1654,1.1655,1.1675,1.1651,1.1652,1.1653,1.1653,1.1719,1.172,0,0,0,0,0,0,1.1656,1.1656,1.1674,1.1674,1.1655,1.1656,1.1656,1.1661,1.1658,1.1656,1.1652,1.1649,1.1653,1.1654,1.1655,1.1687,1.1652,1.1653,1.1654,1.1718,1.1719,1.172,0,0,0,0,0,0,1.1656,1.1658,1.1674,1.1665,1.1666,1.1658,1.1664,1.1662,1.1664,1.1657,1.1656,1.1656,1.1652,1.1653,1.167,1.1686,1.1654,1.1655,1.1716,1.1718,1.172,1.1751,0,0,0,0,0,0,1.1656,1.1658,1.1668,1.1665,1.1667,1.169,1.1665,1.1662,1.1666,1.1663,1.1661,1.166,1.1651,1.1669,1.1672,1.1687,1.1655,1.1715,1.1717,1.1719,1.1748,1.1753,1.1757,0,0,0,0,0,1.1655,1.1677,1.1669,1.1671,1.1679,1.169,1.1691,1.1681,1.1668,1.1678,1.1673,1.166,1.1684,1.1671,1.1674,1.169,1.1714,1.1716,1.1719,1.1746,1.1752,1.1757,0,0,0,0,0,0,1.1682,1.1676,1.1667,1.1689,1.1691,1.1686,1.1699,1.1688,1.1693,1.169,1.1677,1.1677,1.1696,1.1694,1.168,1.1716,1.1697,1.17,1.1716,1.1722,1.1727,1.1727,1.1656,0,0,0,0,0,1.1691,1.1701,1.1695,1.1715,1.1716,1.1707,1.1712,1.1704,1.1704,1.1705,1.1702,1.1703,1.1711,1.1716,1.1723,1.1748,1.1747,1.176,1.1765,1.1768,1.1771,1.1785,1.179,1.1729,1.1729,1.1729,0,0,1.1709,1.1707,1.1714,1.172,1.172,1.1731,1.1708,1.172,1.1727,1.1707,1.1723,1.1721,1.1721,1.1742,1.1752,1.1742,1.1788,1.1772,1.1775,1.1776,1.1788,1.1794,1.1799,1.173,1.173,1.173,0,0,1.1747,1.1746,1.1763,1.1764,1.1764,1.1758,1.1762,1.1759,1.1757,1.1773,1.1758,1.1767,1.1781,1.1782,1.1784,1.1824,1.1812,1.1826,1.1851,1.1864,1.1869,1.1873,1.1887,1.1892,1.1829,1.1829,1.1829,0,1.1769,1.1784,1.1773,1.1786,1.1789,1.1771,1.1788,1.1789,1.1792,1.1795,1.1784,1.1801,1.18,1.1821,1.1831,1.1833,1.1838,1.1826,1.1869,1.1873,1.1877,1.189,1.1896,1.1831,1.1831,1.1831,1.183,0,1.1812,1.1823,1.1836,1.184,1.1844,1.1859,1.185,1.1857,1.1848,1.1844,1.186,1.1859,1.1865,1.187,1.1861,1.189,1.1884,1.1871,1.1851,1.1885,1.1897,1.1902,1.1834,1.1833,1.1832,1.1832,0,0,1.1868,1.1865,1.187,1.1871,1.1871,1.1879,1.1893,1.1899,1.1905,1.1908,1.192,1.1932,1.192,1.1923,1.1915,1.1926,1.1958,1.1912,1.1911,1.1921,1.199,1.2,1.2006,1.195,1.1951,1.1951,1.199,0,1.1905,1.1929,1.1919,1.1945,1.1955,1.1938,1.195,1.1951,1.1947,1.1955,1.1951,1.196,1.1943,1.1945,1.1956,1.1952,1.1971,1.1949,1.1961,1.1961,1.1961,1.2012,1.2023,1.2059,1.1995,1.1995,1.1996,0,1.1952,1.1957,1.1983,1.1981,1.1985,1.1996,1.2001,1.2009,1.201,1.2007,1.201,1.1999,1.2013,1.1993,1.2013,1.1997,1.2002,1.2001,1.2002,1.2003,1.1981,1.2015,1.207,1.2076,1.2003,1.2003,1.2002,0,1.199,1.2003,1.2021,1.2023,1.2021,1.2029,1.2029,1.2028,1.2033,1.2038,1.204,1.2047,1.205,1.2055,1.2046,1.2033,1.2067,1.2046,1.2065,1.2065,1.2073,1.2072,1.213,1.2075,1.2075,1.2075,1.2075,0,1.2033,1.205,1.2038,1.2049,1.2067,1.2056,1.2075,1.2072,1.2072,1.2082,1.2068,1.2078,1.2066,1.2074,1.2067,1.2085,1.2086,1.2084,1.2082,1.2085,1.2086,1.2088,1.2085,1.2076,1.2076,1.2076,1.2076,0,1.208,1.2072,1.209,1.2087,1.2087,1.21,1.2097,1.2107,1.2103,1.2116,1.2118,1.2111,1.212,1.2112,1.2121,1.2116,1.2139,1.2134,1.2139,1.2138,1.2156,1.2155,1.2218,1.2226,1.2166,1.2166,1.2167,0,1.2108,1.212,1.2119,1.2124,1.2125,1.2134,1.2139,1.2128,1.2134,1.2136,1.2146,1.2154,1.216,1.2176,1.2172,1.2179,1.2173,1.2195,1.2174,1.2177,1.2174,1.2173,1.2175,1.2199,1.22,1.22,1.2201,0,1.2159,1.2154,1.2162,1.2168,1.2174,1.2179,1.2182,1.2187,1.2176,1.2183,1.2193,1.2198,1.2207,1.2216,1.2221,1.2221,1.2209,1.2207,1.2212,1.2216,1.2218,1.2217,1.2151,1.2206,1.2205,1.2205,1.2205,1.2205,1.2197,1.2208,1.2208,1.2217,1.2218,1.2222,1.2231,1.2227,1.2235,1.2242,1.2235,1.2247,1.2248,1.2254,1.2255,1.2264,1.2255,1.2262,1.2263,1.2265,1.2268,1.2217,1.2265,1.2265,1.2265,1.2264,1.2264,0,1.2247,1.2247,1.2255,1.226,1.2267,1.2256,1.2259,1.2265,1.2276,1.2278,1.2284,1.2295,1.2303,1.23,1.2307,1.2315,1.231,1.2317,1.2316,1.2317,1.2276,1.2271,1.2321,1.2321,1.2321,1.2321,1.2321,1.2321,1.2274,1.2292,1.2288,1.2306,1.2305,1.2317,1.2319,1.2322,1.2324,1.2337,1.2344,1.2341,1.2341,1.2348,1.2355,1.2354,1.2357,1.2367,1.2363,1.2325,1.2319,1.2314,1.231,1.2367,1.2367,1.2404,1.2404,1.2404]},{"header":{"parameterUnit":"m.s-1","parameterCategory":1,"la1":30.2991,"la2":30.254,"lo1":-89.0895,"lo2":-89.0444,"dy":0.0017,"dx":0.0017,"nx":28,"ny":28,"refTime":"2025-03-10T21:00:00:Z","depth":0,"parameterNumber":3,"parameterNumberName":"V-component_of_WINDS"},"data":[0,0,0,0,0,0,0,0,0,0,0,0,0,0,0,0,0,0,0,0,0,0,0,0,0,0,0,0,0,0,0,0,0,0,0,0,0,0,0,0,0,0,0,0,0,0,0,0,0,0,0,0,0,0,0,0,0,0,-1.4784,-1.4785,0,-1.4853,-1.4854,-1.4855,-1.4859,-1.4858,-1.4858,-1.4857,-1.4929,-1.4932,-1.4934,0,0,0,0,0,0,0,0,0,0,0,0,0,-1.4657,-1.4659,-1.4784,-1.4785,-1.4786,-1.4853,-1.4854,-1.4855,-1.4859,-1.4858,-1.4857,-1.4856,-1.4928,-1.4932,-1.4935,0,0,0,0,0,0,0,0,0,0,0,0,0,-1.4718,-1.466,-1.4784,-1.4796,-1.4798,-1.4853,-1.4854,-1.4855,-1.4859,-1.4858,-1.4857,-1.4856,-1.4927,-1.4931,-1.4935,-1.4984,0,0,-1.4947,-1.4949,0,0,0,0,0,0,0,0,-1.4714,-1.4722,-1.4793,-1.4795,-1.4797,-1.4846,-1.4836,-1.4898,-1.486,-1.4836,-1.4857,-1.4855,-1.4903,-1.4909,-1.4924,-1.4987,-1.499,-1.4948,-1.495,-1.4952,-1.4953,0,0,0,0,0,0,0,-1.471,-1.4719,-1.4811,-1.4794,-1.4797,-1.4798,-1.4806,-1.4848,-1.4875,-1.4838,-1.4839,-1.4847,-1.4904,-1.492,-1.4926,-1.4991,-1.4948,-1.4951,-1.4954,-1.4955,-1.5097,-1.5099,0,0,0,0,0,0,-1.4703,-1.4716,-1.4809,-1.4813,-1.4752,-1.4802,-1.481,-1.4832,-1.4875,-1.488,-1.4848,-1.4847,-1.4914,-1.4921,-1.4929,-1.4988,-1.4952,-1.4956,-1.4958,-1.5096,-1.5098,-1.5099,0,0,0,0,0,0,-1.47,-1.4712,-1.4806,-1.4765,-1.4777,-1.4805,-1.483,-1.4834,-1.4851,-1.4882,-1.4887,-1.486,-1.4914,-1.4923,-1.497,-1.4991,-1.4957,-1.4961,-1.5094,-1.5096,-1.5098,-1.5108,0,0,0,0,0,0,-1.4697,-1.471,-1.4729,-1.4765,-1.4779,-1.4846,-1.4831,-1.4836,-1.4857,-1.4857,-1.4895,-1.49,-1.4913,-1.4964,-1.4974,-1.4996,-1.4964,-1.5093,-1.5095,-1.5098,-1.5106,-1.511,-1.5113,0,0,0,0,0,-1.4692,-1.4729,-1.473,-1.4741,-1.4803,-1.4847,-1.4855,-1.487,-1.4859,-1.4878,-1.4898,-1.4899,-1.4987,-1.4969,-1.498,-1.5003,-1.5091,-1.5095,-1.5098,-1.5104,-1.5109,-1.5113,0,0,0,0,0,0,-1.4695,-1.4734,-1.4735,-1.4784,-1.4812,-1.4848,-1.4872,-1.4875,-1.4906,-1.4905,-1.4922,-1.493,-1.4977,-1.4995,-1.4974,-1.5053,-1.5038,-1.5044,-1.5039,-1.5044,-1.5048,-1.5042,-1.4967,0,0,0,0,0,-1.4701,-1.4733,-1.4766,-1.4806,-1.482,-1.4844,-1.4864,-1.4872,-1.4902,-1.4914,-1.4938,-1.4967,-1.5002,-1.5024,-1.5057,-1.5108,-1.5117,-1.513,-1.5134,-1.5137,-1.5141,-1.517,-1.5176,-1.5109,-1.5109,-1.5109,0,0,-1.4714,-1.4739,-1.4759,-1.4807,-1.483,-1.4864,-1.4854,-1.489,-1.4915,-1.492,-1.4965,-1.4984,-1.5018,-1.5067,-1.509,-1.5083,-1.5162,-1.5141,-1.5143,-1.5146,-1.5174,-1.518,-1.5186,-1.5111,-1.5111,-1.5111,0,0,-1.4755,-1.4778,-1.4814,-1.4837,-1.4871,-1.4886,-1.4895,-1.493,-1.4942,-1.4988,-1.4993,-1.5023,-1.5082,-1.5106,-1.5126,-1.5177,-1.5179,-1.5188,-1.5208,-1.5236,-1.5241,-1.5246,-1.5264,-1.527,-1.5192,-1.5192,-1.5192,0,-1.4767,-1.4818,-1.4832,-1.4868,-1.4889,-1.4895,-1.4932,-1.4954,-1.4998,-1.5012,-1.5005,-1.5079,-1.5102,-1.5157,-1.5169,-1.5185,-1.5196,-1.5183,-1.5239,-1.5244,-1.5248,-1.5266,-1.5273,-1.5193,-1.5193,-1.5193,-1.5193,0,-1.4831,-1.4866,-1.4891,-1.4933,-1.4957,-1.4993,-1.5014,-1.5037,-1.5044,-1.506,-1.5107,-1.5135,-1.5174,-1.5188,-1.5195,-1.5245,-1.524,-1.5235,-1.5221,-1.5255,-1.5272,-1.5279,-1.5194,-1.5194,-1.5193,-1.5193,0,0,-1.4875,-1.4924,-1.4933,-1.4952,-1.4991,-1.5018,-1.5055,-1.5093,-1.5113,-1.5143,-1.5175,-1.5224,-1.5221,-1.5243,-1.5253,-1.5278,-1.5316,-1.527,-1.5271,-1.5278,-1.5373,-1.5376,-1.5383,-1.5318,-1.5319,-1.532,-1.537,0,-1.4921,-1.4986,-1.5,-1.5056,-1.5089,-1.5095,-1.5127,-1.5155,-1.5171,-1.5202,-1.522,-1.5255,-1.5248,-1.5261,-1.5286,-1.5306,-1.5336,-1.5303,-1.5348,-1.5349,-1.5339,-1.5392,-1.5395,-1.5441,-1.5377,-1.5378,-1.5379,0,-1.4982,-1.5013,-1.5073,-1.5107,-1.5121,-1.515,-1.5186,-1.5215,-1.5247,-1.5257,-1.5282,-1.529,-1.5329,-1.5313,-1.5368,-1.5345,-1.5365,-1.5378,-1.538,-1.5385,-1.5366,-1.5398,-1.5456,-1.5462,-1.5389,-1.5388,-1.5387,0,-1.5009,-1.5066,-1.5108,-1.5125,-1.5166,-1.5186,-1.5204,-1.5234,-1.5256,-1.5288,-1.5303,-1.5339,-1.5359,-1.5387,-1.5404,-1.5391,-1.5458,-1.5443,-1.5468,-1.5467,-1.5481,-1.548,-1.5543,-1.5494,-1.5494,-1.5494,-1.5494,0,-1.5058,-1.5094,-1.5121,-1.5147,-1.5188,-1.5204,-1.5245,-1.5263,-1.529,-1.532,-1.5328,-1.5357,-1.5378,-1.541,-1.5424,-1.5467,-1.5476,-1.5486,-1.5489,-1.5485,-1.5484,-1.5498,-1.5495,-1.5496,-1.5495,-1.5495,-1.5494,0,-1.5094,-1.5114,-1.5161,-1.5196,-1.5205,-1.5234,-1.5264,-1.5291,-1.5307,-1.5346,-1.5356,-1.5382,-1.542,-1.544,-1.5488,-1.5497,-1.5546,-1.5548,-1.5535,-1.5537,-1.556,-1.5558,-1.5634,-1.5645,-1.5589,-1.5589,-1.559,0,-1.5124,-1.5152,-1.519,-1.5211,-1.5229,-1.5263,-1.5285,-1.5302,-1.5326,-1.5364,-1.5386,-1.5424,-1.5455,-1.5516,-1.5539,-1.5576,-1.5579,-1.5603,-1.5584,-1.5579,-1.5579,-1.5577,-1.558,-1.5606,-1.5606,-1.5607,-1.5607,0,-1.5176,-1.5184,-1.5216,-1.5251,-1.5277,-1.5306,-1.5335,-1.5351,-1.5373,-1.5399,-1.5438,-1.5462,-1.5511,-1.5549,-1.5587,-1.5607,-1.5611,-1.5613,-1.5621,-1.5617,-1.5609,-1.5614,-1.5544,-1.5611,-1.5611,-1.561,-1.561,-1.561,-1.521,-1.5235,-1.5266,-1.5301,-1.5324,-1.5351,-1.5377,-1.5397,-1.5429,-1.5469,-1.5478,-1.5519,-1.555,-1.5602,-1.5623,-1.5656,-1.5651,-1.5662,-1.5665,-1.5667,-1.5668,-1.5603,-1.5663,-1.5663,-1.5662,-1.5662,-1.5662,0,-1.5262,-1.5282,-1.5314,-1.5353,-1.5381,-1.5382,-1.5414,-1.5437,-1.5473,-1.5502,-1.5532,-1.5577,-1.5614,-1.5641,-1.5679,-1.57,-1.5703,-1.5709,-1.5708,-1.5713,-1.567,-1.566,-1.5706,-1.5706,-1.5706,-1.5706,-1.5706,-1.5706,-1.5292,-1.5335,-1.5347,-1.5401,-1.5421,-1.5461,-1.5479,-1.5503,-1.5526,-1.5575,-1.5606,-1.5623,-1.5651,-1.5691,-1.5726,-1.5733,-1.5747,-1.5753,-1.576,-1.572,-1.5715,-1.5711,-1.5701,-1.5756,-1.5756,-1.58,-1.58,-1.58]}]]